#timestamp,LO_Frequency,Hit,StdDev 
1552885215.6,286046997.4,N
1552885235.5,286046995.7,N
1552885255.3,286046997.6,N
1552885275.1,286046996.7,N
1552885295.9,286046996.9,N
1552885315.7,286046996.0,N
1552885335.5,286046993.7,Y
1552885355.4,286046997.6,P
1552885375.2,286046995.1,P
1552885395.1,286046997.2,N
1552885396.0,286046997.2,N
1552885415.8,286046998.3,N
1552885435.6,286047000.8,N
1552885455.5,286047000.4,N
1552885475.3,286047002.0,N
1552885495.1,286047001.7,N
1552885515.9,286046999.7,N
1552885535.7,286047002.5,N
1552885555.6,286047000.2,N
1552885575.4,286047000.6,N
1552885595.2,286047002.1,N
1552885615.1,286047000.2,N
1552885616.0,286047000.2,N
1552885635.8,286047002.5,N
1552885655.6,286047002.7,N
1552885675.5,286047000.1,N
1552885695.3,286046998.5,N
1552885715.2,286046998.4,N
1552885735.9,286047000.3,N
1552885755.7,286047000.2,N
1552885775.6,286047002.2,N
1552885795.4,286047004.3,N
1552885815.2,286047001.4,N
1552885835.1,286047002.4,N
1552885836.0,286047002.4,N
1552885855.8,286047001.6,N
1552885875.7,286047004.0,N
1552885895.5,286047003.9,N
1552885915.3,286047002.5,N
1552885935.2,286047002.5,N
1552885955.0,286047002.6,N
1552885955.9,286047002.6,N
1552885975.8,286047000.7,N
1552885995.6,286046999.8,N
1552886015.4,286047002.7,N
1552886035.3,286047002.4,N
1552886055.1,286047002.2,N
1552886075.8,286047001.3,N
1552886095.7,286047003.9,N
1552886145.6,286047001.6,E
1552886155.5,286047002.1,N
1552886175.3,286046999.9,P
1552886195.1,286047001.6,N
1552886215.9,286047001.3,N
1552886235.7,286047003.9,Y
1552886255.6,286047002.7,P
1552886275.4,286047002.8,P
1552886295.2,286046998.5,N
1552886315.1,286047000.8,N
1552886316.0,286047000.8,N
1552886335.8,286047004.4,Y
1552886355.7,286046999.6,P
1552886375.5,286046997.7,P
1552886395.3,286046997.2,N
1552886415.2,286046997.2,N
1552886435.0,286046997.4,N
1552886435.9,286046997.4,N
1552886455.8,286046998.2,N
1552886475.6,286047002.7,N
1552886495.4,286047000.5,N
1552886515.3,286046998.5,N
1552886535.1,286047000.7,N
1552886555.9,286046999.3,N
1552886575.7,286046999.6,N
1552886595.5,286046999.0,N
1552886615.4,286046998.7,N
1552886635.2,286046999.5,N
1552886655.0,286046999.0,N
1552886655.9,286046999.0,N
1552886675.8,286046998.3,N
1552886695.6,286046998.8,N
1552886715.5,286046998.7,N
1552886735.3,286046998.4,N
1552886755.1,286046998.8,N
1552886775.9,286046998.3,N
1552886795.7,286046999.3,N
1552886815.6,286046999.0,N
1552886835.4,286046996.8,N
1552886855.2,286046996.7,N
1552886875.1,286046999.1,N
1552886876.0,286046999.1,N
1552886895.8,286047000.5,N
1552886915.6,286046998.1,N
1552886935.5,286046998.4,N
1552886955.3,286046999.1,N
1552886975.2,286046998.9,N
1552886995.9,286046998.9,N
1552887015.7,286046997.0,N
1552887035.6,286046999.2,N
1552887055.4,286047000.5,N
1552887075.2,286046999.1,N
1552887095.1,286046999.0,N
1552887096.0,286046999.0,N
1552887115.8,286046998.7,N
1552887135.7,286047001.1,N
1552887155.5,286047001.1,N
1552887175.3,286046998.1,N
1552887195.2,286046998.2,N
1552887215.0,286046998.7,N
1552887215.9,286046998.7,N
1552887235.7,286047001.0,N
1552887255.6,286047001.2,N
1552887275.4,286047000.3,N
1552887295.3,286046998.3,N
1552887315.1,286046999.1,N
1552887316.0,286046999.1,N
1552887335.8,286047001.2,N
1552887355.7,286046998.3,N
1552887375.5,286047001.2,N
1552887395.3,286047001.0,N
1552887415.2,286047000.6,N
1552887435.0,286047002.1,N
1552887435.9,286047002.1,N
1552887455.8,286046999.8,N
1552887475.6,286046999.3,N
1552887495.4,286046999.2,N
1552887515.3,286046999.2,N
1552887535.1,286047000.8,N
1552887555.8,286047000.8,N
1552887575.7,286046999.7,N
1552887595.5,286047002.2,N
1552887615.4,286046998.5,N
1552887635.2,286047000.3,N
1552887655.0,286047000.9,N
1552887655.9,286047000.9,N
1552887675.8,286047000.3,N
1552887695.6,286047002.1,N
1552887715.4,286047002.2,N
1552887735.3,286047002.2,N
1552887755.1,286047001.8,N
1552887775.9,286047002.2,N
1552887795.7,286047000.1,N
1552887815.5,286046996.9,N
1552887835.4,286046999.4,N
1552887855.2,286046996.9,N
1552887875.0,286046997.0,N
1552887875.9,286046997.0,N
1552887895.8,286046995.5,N
1552887915.6,286046997.4,N
1552887935.5,286046999.3,N
1552887955.3,286046996.6,N
1552887975.1,286046998.1,N
1552887995.9,286047002.6,N
1552888015.7,286047002.3,N
1552888035.6,286047002.4,N
1552888055.4,286047002.6,N
1552888075.2,286047000.2,N
1552888095.1,286047000.3,N
1552888096.0,286047000.3,N
1552888115.8,286046999.9,N
1552888135.6,286047002.2,N
1552888155.5,286047002.5,N
1552888175.3,286046998.2,N
1552888195.2,286046996.5,N
1552888215.9,286046996.5,N
1552888235.7,286046998.9,N
1552888255.6,286047001.2,N
1552888275.4,286047001.0,N
1552888295.2,286047000.7,N
1552888315.1,286047001.9,N
1552888316.0,286047001.9,N
1552888335.8,286047002.1,N
1552888355.7,286047002.5,N
1552888375.5,286047000.6,N
1552888395.3,286047002.4,N
1552888415.2,286047004.4,N
1552888435.0,286047003.4,N
1552888435.9,286047003.4,N
1552888455.8,286047003.1,N
1552888475.6,286047003.6,N
1552888495.4,286047002.1,N
1552888515.3,286047003.8,N
1552888535.1,286047004.4,N
1552888555.8,286047004.3,N
1552888575.7,286047004.2,N
1552888595.5,286047001.8,N
1552888615.4,286047000.5,N
1552888635.2,286047000.2,N
1552888655.0,286047000.2,N
1552888655.9,286047000.2,N
1552888675.8,286047002.6,N
1552888695.6,286047002.5,N
1552888715.5,286047003.6,N
1552888735.3,286047001.7,N
1552888755.1,286047004.4,N
1552888775.9,286047003.1,N
1552888795.7,286047002.4,N
